sat.trackr.live / text

‹ back to catalog

SAUDISAT 4

NORAD 40016 · 2014-033G

PAYLOAD ACTIVE UNKNOWN

§ Identity

Operator
Country
SAUD
Launch date
2014-06-19
Launch site
DLS
Launch vehicle
Mass (kg)
RCS (m²)
0.44

Purposes: tech_demo

External: N2YO · Heavens-Above · Gunter

§ Orbital elements

Epoch: 2026-05-25T02:59:12.252768Z

Period
97.33 min
Inclination
97.7554°
Eccentricity
0.0045658
Mean motion
14.79504334 rev/d
Perigee alt
598.9 km
Apogee alt
662.9 km
Semi-major
7,009.0 km
B*
8.8979e-5
RAAN
292.0615°
Arg perigee
146.9434°
Mean anomaly
213.4647°
Rev number
64,266

§ Raw data

SAUDISAT 41 40016U 14033G   26145.12444737  .00000625  00000+0  88979-4 0  99992 40016  97.7554 292.0615 0045658 146.9434 213.4647 14.79504334642665

JSON: /api/v1/satellites/40016 · /tle

For live sub-satellite position, see the globe view (requires WebGL).

§ Visibility from observer

Set your observer location to see the next 7 days of passes ≥ 10°. The values pass through the URL so the page stays shareable.

No JS? Fill the form by hand. The geolocation button needs JavaScript.

§ Radio — SatNOGS DB

ModeDescriptionDownlinkUplink
FM Mode U 401.600 MHz
FM Mode V TLM 148.035 MHz

2 transmitters · refreshed weekly from db.satnogs.org